Weather observations for the past three days for
Port Angeles Coast Guard Air Station
Imperial (Metric)
Date Time (pdt) Wind (mph) Vis. (mi.) Weather Sky Cond. Temperature (ºF) Relative Humidity Wind Chill (°F) Heat Index (°F) Pressure Precipitation (in)
Air Dwpt 6 hour altimeter (in) sea level (mb) 1 hr 3 hr 6 hr
Max. Min.
17 06:55 NW 6 10.00 Fair CLR 57.6 56.3 96% 29.96 0.0
17 06:35 NW 7 10.00 Fair CLR 57 55.8 96% 29.96 0.0
17 06:15 W 6 10.00 Fair CLR 57.2 56.3 97% 29.96 0.0
17 05:55 W 6 10.00 Fair CLR 57.2 55.9 96% 29.95 0.0
17 05:35 W 7 10.00 Fair CLR 56.7 55.9 97% 29.95 0.0
17 05:15 NW 3 10.00 Fair CLR 56.7 55.9 97% 29.95 0.0
17 04:55 Calm 10.00 Fair CLR 56.5 55.8 61.9 54.5 97% 29.93 0.0
17 04:35 SW 6 10.00 Fair CLR 55.8 55.4 99% 29.93 0.0
17 04:15 W 7 10.00 Fair CLR 57.6 55.9 94% 29.93 0.0
17 03:55 NW 3 10.00 Fair CLR 55.2 54.7 98% 29.93 0.0
17 03:35 NW 3 10.00 Fair CLR 54.5 54.5 100% 29.93 0.0
17 03:15 NW 3 10.00 Fair CLR 54.9 54.5 99% 29.93 0.0
17 02:55 W 5 10.00 Fair CLR 57.4 55.9 95% 29.92 0.0
17 02:35 W 6 10.00 Fair CLR 57.6 55.8 94% 29.92 0.0
17 02:15 W 8 10.00 Fair CLR 59.4 56.3 90% 29.91 0.0
17 01:55 W 9 10.00 Fair CLR 59 56.1 90% 29.91 0.0
17 01:35 W 10 10.00 Fair CLR 58.8 56.1 91% 29.92 0.0
17 01:15 W 12 10.00 Fair CLR 60.1 56.1 87% 29.91 0.0
17 00:55 W 9 10.00 Fair CLR 59.2 56.3 90% 29.92 0.0
17 00:35 W 5 10.00 Fair CLR 58.5 55.8 91% 29.92 0.0
17 00:15 Calm 10.00 Fair CLR 57.2 55.2 93% 29.92 0.0
16 23:55 Calm 10.00 Fair CLR 58.5 56.7 94% 29.92 0.0
16 23:35 Calm 10.00 Fair CLR 58.1 56.3 94% 29.92 0.0
16 23:15 W 6 10.00 Fair CLR 59 55.9 90% 29.92 0.0
16 22:55 W 6 10.00 Fair CLR 61.9 56.7 64.2 59.4 83% 29.92 0.0
16 22:35 W 6 10.00 Fair CLR 60.8 56.5 86% 29.92 0.0
16 22:15 W 8 10.00 Fair CLR 60.8 56.7 86% 29.92 0.0
16 21:55 W 9 10.00 Fair CLR 61.2 56.7 85% 29.92 0.0
16 21:35 W 12 10.00 Fair CLR 61.2 56.5 85% 29.92 0.0
16 21:15 W 12 10.00 Fair CLR 61.7 56.3 83% 29.92 0.0
16 20:55 W 12 10.00 Fair CLR 61.9 56.3 82% 29.91 0.0
16 20:35 W 9 10.00 Fair CLR 60.3 56.1 86% 29.92 0.0
16 20:15 W 12 10.00 Fair CLR 60.3 56.3 87% 29.92 0.0
16 19:55 W 10 10.00 Fair CLR 61.3 56.3 84% 29.92 0.0
16 19:35 W 12 10.00 Fair CLR 60.8 56.3 85% 29.91 0.0
16 19:15 NW 13 10.00 Fair CLR 59.9 56.3 88% 29.92 0.0
16 18:55 NW 13 10.00 Fair CLR 60.1 56.3 87% 29.92 0.0
16 18:35 NW 13 10.00 Fair CLR 61.5 56.5 84% 29.93 0.0
16 18:15 NW 10 10.00 Fair CLR 61.9 56.5 83% 29.93 0.0
16 17:55 NW 10 10.00 Fair CLR 63.9 56.8 78% 29.94 0.0
16 17:35 NW 12 10.00 Fair CLR 62.8 57.2 82% 29.95 0.0
16 17:15 NW 10 10.00 Fair CLR 62.6 57.2 83% 29.95 0.0
16 16:55 NW 8 10.00 Fair CLR 63.7 57 68.7 60.8 79% 29.95 0.0
16 16:35 NW 8 10.00 Fair CLR 64 57.2 79% 29.95 0.0
16 16:15 NW 8 10.00 Fair CLR 63.5 57.2 80% 29.96 0.0
16 15:55 NW 7 10.00 Fair CLR 64.2 57.2 78% 29.97 0.0
16 15:35 NW 6 10.00 Fair CLR 64.9 57.2 76% 29.97 0.0
16 15:15 NW 6 10.00 Fair CLR 65.8 57.2 74% 29.98 0.0
16 14:55 NW 5 10.00 Fair CLR 66.4 59.4 78% 29.98 0.0
16 14:35 Calm 10.00 Fair CLR 66.4 56.7 71% 29.98 0.0
16 14:15 Calm 10.00 Fair CLR 67.8 56.8 68% 29.98 0.0
16 13:55 Calm 10.00 Fair CLR 66 57.4 74% 29.99 0.0
16 13:35 Calm 10.00 Fair CLR 66.2 57.6 74% 30 0.0
16 13:15 Calm 10.00 Fair CLR 66.6 57 72% 30 0.0
16 12:55 Calm 10.00 Fair CLR 67.8 57 69% 30 0.0
16 12:35 Calm 10.00 Fair CLR 65.8 56.8 73% 30.01 0.0
16 12:15 Calm 10.00 Fair CLR 64.6 56.3 75% 30.02 0.0
16 11:55 Calm 10.00 Fair CLR 63.1 56.3 79% 30.02 0.0
16 11:35 Calm 10.00 Fair CLR 61 56.1 84% 30.03 0.0
16 11:15 E 3 10.00 Fair CLR 61.2 55.9 83% 30.03 0.0
16 10:55 Calm 10.00 Fair CLR 61.7 55.6 61.7 50.7 80% 30.03 0.0
16 10:35 Calm 10.00 Fair CLR 59.5 55.2 86% 30.04 0.0
16 10:15 Calm 10.00 Fair CLR 58.5 54.7 87% 30.04 0.0
16 09:55 Calm 10.00 Fair CLR 59.4 55.2 86% 30.04 0.0
16 09:35 Calm 10.00 Fair CLR 58.1 54.5 88% 30.04 0.0
16 09:15 Calm 10.00 Fair CLR 58.3 54.7 88% 30.05 0.0
16 08:55 Calm 10.00 Fair CLR 56.1 53.8 92% 30.05 0.0
16 08:35 NW 3 10.00 Fair CLR 55.4 53.6 94% 30.05 0.0
16 08:15 NW 3 10.00 Fair CLR 55.8 53.6 93% 30.05 0.0
16 07:55 NW 3 10.00 Fair CLR 55.9 53.8 93% 30.05 0.0
16 07:35 NW 5 10.00 Fair CLR 54.7 53.4 96% 30.05 0.0
16 07:15 NW 5 10.00 Fair CLR 54 53.6 99% 30.04 0.0
16 06:55 Calm 10.00 Fair CLR 52.7 52.7 100% 30.04 0.0
16 06:35 Calm 10.00 Fair CLR 52.3 52.3 100% 30.05 0.0
16 06:15 W 3 10.00 Fair CLR 52.2 52.2 100% 30.05 0.0
16 05:55 W 3 10.00 Fair CLR 51.8 51.8 100% 30.05 0.0
16 05:35 Calm 10.00 Partly Cloudy SCT001 51.6 51.6 100% 30.05 0.0
16 05:15 W 3 1.50 Fog/Mist OVC001 51.1 51.1 100% 30.04 0.0
16 04:55 NW 5 7.00 Partly Cloudy SCT001 50.9 50.9 52.7 50.5 100% 30.04 0.0
16 04:35 NW 3 2.00 Fog/Mist OVC001 50.7 50.7 100% 30.04 0.0
16 04:15 Calm 0.50 Fog OVC001 51.8 51.8 100% 30.04 0.0
16 03:55 W 8 0.50 Fog OVC001 51.8 51.8 100% 30.04 0.0
16 03:35 W 7 0.75 Fog/Mist OVC001 52 52 100% 30.04 0.0
16 03:15 W 8 0.50 Fog OVC001 52 52 100% 30.04 0.0
16 02:55 W 5 0.75 Fog/Mist OVC001 52.2 52.2 100% 30.04 0.0
16 02:35 W 3 1.00 Fog/Mist OVC001 52 52 100% 30.04 0.0
16 02:15 W 6 0.75 Fog/Mist OVC001 52.3 52.3 100% 30.04 0.0
16 01:55 W 6 3.00 Fog/Mist OVC001 52.3 52.3 100% 30.03 0.0
16 01:35 W 7 0.50 Fog OVC001 52.5 52.5 100% 30.03 0.0
16 01:15 W 8 1.25 Fog/Mist OVC001 52.3 52.3 100% 30.04 0.0
16 00:55 W 8 1.75 Fog/Mist OVC001 52.7 52.7 100% 30.04 0.0
16 00:35 W 12 1.00 Fog/Mist OVC001 52.5 52.5 100% 30.05 0.0
16 00:10 W 13 G 17 2.50 Fog/Mist OVC001 52.7 52.7 100% 30.05 0.0
15 23:55 W 13 2.50 Fog/Mist OVC001 52.5 52.5 100% 30.05 0.0
15 23:35 W 15 1.75 Fog/Mist OVC001 52.7 52.7 100% 30.05 0.0
15 23:15 W 14 5.00 Fog/Mist OVC001 52.7 52.7 100% 30.05 0.0
15 22:55 W 12 3.00 Fog/Mist OVC001 52.7 52.7 59.5 52.3 100% 30.05 0.0
15 22:35 W 14 4.00 Fog/Mist OVC001 52.7 52.7 100% 30.06 0.0
15 22:15 W 15 G 21 1.75 Fog/Mist OVC001 52.7 52.7 100% 30.06 0.0
15 21:55 W 17 1.25 Fog/Mist OVC001 52.3 52.3 100% 30.06 0.0
15 21:35 W 15 1.75 Fog/Mist OVC001 52.5 52.5 100% 30.06 0.0
15 21:15 W 16 0.75 Fog/Mist OVC001 52.9 52.9 100% 30.06 0.0
15 20:55 W 15 1.00 Fog/Mist OVC001 52.7 52.7 100% 30.06 0.0
15 20:35 W 17 0.50 Fog OVC001 52.9 52.9 100% 30.06 0.0
15 20:15 W 18 0.75 Fog/Mist OVC001 52.9 52.9 100% 30.07 0.0
15 19:55 W 20 0.75 Light Drizzle OVC001 53.6 53.6 100% 30.07 0.0
15 19:35 W 16 1.50 Fog/Mist OVC001 54.3 53.8 98% 30.07 0.0
15 19:15 W 16 7.00 Partly Cloudy SCT001 55.6 54 94% 30.07 0.0
15 18:55 W 17 10.00 Fair CLR 57 54.3 91% 30.07 0.0
15 18:35 W 15 10.00 Fair CLR 57.4 54.5 90% 30.07 0.0
15 18:15 W 15 10.00 Fair CLR 58.1 54.5 88% 30.08 0.0
15 17:55 NW 14 10.00 Fair CLR 58.1 54.7 88% 30.08 0.0
15 17:35 W 15 10.00 Fair CLR 59.2 54.7 85% 30.09 0.0
15 17:15 W 14 10.00 Fair CLR 59 54.7 86% 30.1 0.0
15 16:55 NW 15 10.00 Fair CLR 59 54.7 61.7 58.5 86% 30.09 0.0
15 16:35 NW 12 10.00 Fair CLR 59.5 54.5 84% 30.1 0.0
15 16:15 NW 12 10.00 Fair CLR 60.4 54.5 81% 30.11 0.0
15 15:55 NW 12 10.00 Fair CLR 61.3 54.7 79% 30.11 0.0
15 15:35 NW 12 10.00 Fair CLR 61.2 54.5 79% 30.11 0.0
15 15:15 NW 12 10.00 Fair CLR 60.6 54.5 80% 30.12 0.0
15 14:55 NW 13 10.00 Fair CLR 60.4 54.3 80% 30.12 0.0
15 14:35 NW 12 10.00 Fair CLR 60.1 54.3 81% 30.13 0.0
15 14:15 NW 13 10.00 Fair CLR 60.4 54.3 80% 30.13 0.0
15 13:55 NW 12 10.00 Fair CLR 60.1 54.1 81% 30.14 0.0
15 13:35 NW 10 10.00 Fair CLR 60.1 54.1 81% 30.14 0.0
15 13:15 NW 9 10.00 Fair CLR 60.4 54.3 80% 30.14 0.0
15 12:55 NW 8 10.00 Fair CLR 59.4 54.1 83% 30.14 0.0
15 12:35 NW 8 10.00 Fair CLR 60.3 54.1 80% 30.15 0.0
15 12:15 NW 9 10.00 Fair CLR 58.8 54 84% 30.15 0.0
15 11:55 NW 8 10.00 Partly Cloudy SCT008 59.5 54.1 82% 30.15 0.0
15 11:35 NW 7 10.00 Overcast OVC008 58.8 54.1 85% 30.16 0.0
15 11:15 NW 7 10.00 Mostly Cloudy BKN008 58.5 54.1 86% 30.16 0.0
15 10:55 NW 7 10.00 Mostly Cloudy BKN010 59.2 54.3 59.2 53.8 84% 30.16 0.0
15 10:35 NW 7 10.00 Overcast OVC010 58.3 54.3 87% 30.15 0.0
15 10:15 NW 7 10.00 Overcast OVC010 57.4 54.1 89% 30.15 0.0
15 09:55 NW 7 10.00 Overcast OVC010 56.5 53.8 91% 30.15 0.0
15 09:35 NW 7 10.00 Overcast OVC008 55.8 53.6 93% 30.15 0.0
15 09:15 NW 9 10.00 Overcast OVC008 55.6 53.8 94% 30.15 0.0
15 08:55 W 9 10.00 Overcast OVC008 55.2 53.6 94% 30.15 0.0
15 08:35 W 8 10.00 Overcast OVC008 54.5 53.6 97% 30.15 0.0
15 08:15 W 8 10.00 Overcast OVC008 54.5 53.6 97% 30.15 0.0
15 07:55 W 9 10.00 Overcast OVC008 54.1 53.6 98% 30.14 0.0
15 07:35 W 8 10.00 Overcast OVC008 54.1 53.6 98% 30.14 0.0
15 07:15 W 8 10.00 Overcast OVC008 54 53.6 99% 30.13 0.0
15 06:55 W 9 10.00 Overcast OVC008 54 53.4 98% 30.13 0.0
15 06:35 W 9 10.00 Overcast OVC008 53.8 53.2 98% 30.12 0.0
15 06:15 W 9 10.00 Overcast OVC008 53.8 53.2 98% 30.12 0.0
15 05:55 W 9 10.00 Overcast OVC008 53.8 53.2 98% 30.11 0.0
15 05:35 W 13 10.00 Overcast OVC008 53.8 53.1 97% 30.11 0.0
15 05:15 W 12 10.00 Overcast OVC010 54 53.2 97% 30.11 0.0
15 04:55 W 9 10.00 Overcast OVC010 54 53.2 54.1 53.6 97% 30.11 0.0
15 04:35 W 13 G 18 10.00 Overcast OVC010 54 53.2 97% 30.1 0.0
15 04:15 W 13 10.00 Overcast OVC010 53.6 52.9 97% 30.1 0.0
15 03:55 W 16 10.00 Overcast OVC010 53.8 53.1 97% 30.09 0.0
15 03:35 W 15 10.00 Overcast OVC010 53.8 53.1 97% 30.09 0.0
15 03:15 W 14 G 24 10.00 Overcast OVC010 54.1 53.2 97% 30.09 0.0
15 02:55 W 18 G 25 10.00 Overcast OVC010 54 53.2 97% 30.09 0.0
15 02:35 W 17 G 23 10.00 Overcast OVC010 53.8 53.2 98% 30.09 0.0
15 02:15 W 15 G 23 10.00 Overcast OVC008 53.6 53.2 99% 30.08 0.0
15 01:55 W 18 G 24 10.00 Overcast OVC008 53.6 53.4 99% 30.08 0.0
15 01:35 W 22 G 28 10.00 Overcast and Breezy OVC008 53.6 53.6 100% 30.08 0.0
15 01:15 W 21 G 28 10.00 Overcast and Breezy OVC008 53.6 53.6 100% 30.08 0.0
15 00:55 W 24 G 28 10.00 Overcast and Breezy OVC008 53.6 53.6 100% 30.08 0.0
15 00:35 W 23 10.00 Overcast and Breezy OVC006 53.6 53.6 100% 30.07 0.0
15 00:15 W 23 G 28 10.00 Overcast and Breezy OVC006 53.8 53.6 99% 30.07 0.0
14 23:55 W 21 G 29 10.00 Overcast and Breezy OVC004 53.6 53.6 100% 30.07 0.0
14 23:35 W 22 G 28 10.00 Overcast and Breezy OVC004 53.6 53.6 100% 30.06 0.0
14 23:15 W 24 10.00 Overcast and Breezy OVC006 53.6 53.6 100% 30.06 0.0
14 22:55 W 23 G 29 10.00 Mostly Cloudy and Breezy BKN006 53.6 53.6 61.2 53.1 100% 30.05 0.0
14 22:35 W 23 G 29 10.00 Mostly Cloudy and Breezy BKN006 54 53.8 99% 30.05 0.0
14 22:15 W 23 G 29 10.00 Overcast and Breezy OVC004 53.6 53.6 100% 30.05 0.0
14 21:55 W 23 4.00 Fog/Mist and Breezy OVC002 53.2 53.2 100% 30.05 0.0
14 21:35 W 24 G 30 4.00 Fog/Mist and Breezy OVC002 53.4 53.4 100% 30.05 0.0
14 21:15 W 24 G 29 7.00 Overcast and Breezy OVC002 53.8 53.8 100% 30.04 0.0
14 20:55 W 23 G 29 7.00 Mostly Cloudy and Breezy BKN002 54.5 54.1 99% 30.04 0.0
14 20:35 W 20 G 30 10.00 Fair CLR 54.9 54.3 98% 30.03 0.0
14 20:15 W 20 10.00 Fair CLR 55.6 54.5 96% 30.04 0.0
14 19:55 W 21 G 28 10.00 Fair and Breezy CLR 56.3 54.5 94% 30.04 0.0
14 19:35 W 21 10.00 Fair and Breezy CLR 57.2 54.5 91% 30.03 0.0
14 19:15 W 23 G 28 10.00 Fair and Breezy CLR 57.9 54.5 88% 30.03 0.0
14 18:55 W 22 G 25 10.00 Fair and Breezy CLR 58.3 54.7 88% 30.03 0.0
14 18:35 W 21 10.00 Fair and Breezy CLR 58.5 54.5 87% 30.03 0.0
14 18:15 W 22 10.00 Fair and Breezy CLR 58.6 54.5 86% 30.03 0.0
14 17:55 W 21 10.00 Fair and Breezy CLR 59.4 54.5 84% 30.03 0.0
14 17:35 W 20 10.00 Fair CLR 59.9 54.5 82% 30.03 0.0
14 17:15 W 18 10.00 Fair CLR 60.6 54.5 80% 30.03 0.0
14 16:55 W 18 10.00 Fair CLR 61.2 54.7 63.5 58.5 79% 30.04 0.0
14 16:35 W 15 10.00 Fair CLR 62.4 54.7 76% 30.04 0.0
14 16:15 W 17 10.00 Fair CLR 62.8 54.7 75% 30.05 0.0
14 15:55 W 16 10.00 Fair CLR 62.6 54.3 75% 30.05 0.0
14 15:35 W 15 G 18 10.00 Fair CLR 61.9 54.5 77% 30.05 0.0
14 15:15 W 14 10.00 Fair CLR 62.8 54.5 75% 30.05 0.0
14 14:55 W 14 10.00 Fair CLR 61.7 54.7 78% 30.06 0.0
14 14:35 NW 17 10.00 Fair CLR 61.5 54.5 78% 30.05 0.0
14 14:15 NW 14 10.00 Fair CLR 61.7 54.5 77% 30.05 0.0
14 13:55 NW 16 10.00 Fair CLR 61.5 54.7 78% 30.05 0.0
14 13:35 NW 15 10.00 Fair CLR 60.8 54.7 80% 30.06 0.0
14 13:15 NW 14 10.00 Fair CLR 60.6 54.7 81% 30.06 0.0
14 12:55 W 13 10.00 Fair CLR 61 54.7 80% 30.06 0.0
14 12:35 NW 15 10.00 Fair CLR 60.4 54.7 81% 30.06 0.0
14 12:15 W 13 10.00 Fair CLR 61 54.9 80% 30.06 0.0
14 11:55 W 13 10.00 Fair CLR 60.3 54.7 82% 30.06 0.0
14 11:35 NW 13 7.00 Fair CLR 59.2 54.7 85% 30.05 0.0
14 11:15 NW 13 7.00 Fair CLR 59 54.7 86% 30.05 0.0
14 10:55 NW 12 10.00 Fair CLR 59.5 54.7 59.5 54.7 84% 30.05 0.0
14 10:35 NW 12 7.00 Fair CLR 58.8 54.7 86% 30.05 0.0
14 10:15 NW 12 7.00 Fair CLR 58.5 54.5 87% 30.05 0.0
14 09:55 NW 12 7.00 Fair CLR 58.1 54.5 88% 30.05 0.0
14 09:35 NW 12 10.00 Fair CLR 58.3 54.5 87% 30.05 0.0
14 09:15 W 12 10.00 Fair CLR 58.3 54.5 87% 30.05 0.0
14 08:55 W 12 10.00 Fair CLR 58.3 54.5 87% 30.05 0.0
14 08:35 W 12 10.00 Fair CLR 57.9 54.5 88% 30.05 0.0
14 08:15 W 12 7.00 Fair CLR 57 54.5 91% 30.05 0.0
14 07:55 W 9 10.00 Fair CLR 56.8 54.5 92% 30.04 0.0
14 07:35 W 9 10.00 Fair CLR 57 54.3 91% 30.04 0.0
14 07:15 W 6 10.00 Fair CLR 56.7 54.3 92% 30.03 0.0
Date Time (pdt) Wind (mph) Vis. (mi.) Weather Sky Cond. Air Dwpt Max. Min. Relative Humidity Wind Chill (°F) Heat Index (°F) altimeter (in) sea level (mb) 1 hr 3 hr 6 hr
6 hour
Temperature (ºF) Pressure Precipitation (in)